Погода в Рейкьявике

Исландия     64°07′33″N   21°50′59″W
темп.,
°C
ветер,
м/с
пор.,
м/с
влажн.,
%
обл.,
%
осадки,
мм/ч
давл.,
гПа
погр.,
м
10 августа, ср
ср1000:00+11зюз131596100 2.7 993892
03:00+10з101293100 0.5 996866
06:00+10з71089100 0.6 998798
09:00+9з7988100 0.5 1001814
12:00+10з778398 1.1 1003884
15:00+9зюз5680100 0.4 1005917
18:00+9юз5577100 0.5 1007950
21:00+9ююз457591 0.3 1008838
11 августа, чт
чт1100:00+9ю457599 0.5 1008477
03:00+8вюв3375100 0.0 1008270
06:00+9вюв4482100 0.2 1008376
09:00+10юв457485 0.4 1008583
12:00+11ю4566100 0.9 10081048
15:00+12ю5669100 0.7 10071087
18:00+9ю5783100 3.3 10071141
21:00+9всв4488100 3.7 1006409
12 августа, пт
пт1200:00+9сз3487100 4.9 1008450
03:00+9зсз348352 0.1 1009553
06:00+9юз568434 0.3 1011563
09:00+9юз7775100 0.7 10111095
12:00+9зюз667599 1.0 10121061
15:00+9з667539 0.3 1013984
18:00+9з567690 0.4 1014954
21:00+9з5673100 0.2 10151006
13 августа, сб
сб1300:00+9зсз4569100 0.3 1016958
03:00+9зюз446759 0.0 1016810
06:00+8ю3278100 0.1 1016368
09:00+9юв3372100 0.0 1016461
12:00+11ююв5666100 0.0 1015961
15:00+10юв6880100 0.8 1014587
18:00+10ююв4789100 2.0 1013505
21:00+11ююз468487 0.9 1013463
14 августа, вс
вс1400:00+10ю4686100 1.6 1013405
03:00+10ююз4582100 0.8 1013387
06:00+10ю3482100 1.3 1013327
09:00+11ю227996 0.4 1013278
12:00+11юз1278100 0.8 1014345
15:00+11з227793 0.1 1014322
18:00+11зсз118096 0.3 1014224
21:00+11зюз008029 0.0 101585